UTA7775 LOWI-USRO

Flight info

Callsign UTA7775
Flight time N/A
Altitude 33000
Route RTT DCT ERANI DCT ABLOM DCT ORTYN DCT BABKO DCT KOTEK DCT ETUBO M863 RUDKA/K0856F330 T174 OSMUS N869 LAPKI L999 AGLAN M864 TEKBO T830 LAMGU N604 HMN R124 ATBAR G486 ATLON ATLON1J
Aircraft B738/M-SDE2E3FGHIRWXY/LB1

Departure

Time N/A
Airport Innsbruck Airport (LOWI)

Arrival

Time 2026-04-24 21:04
Airport Noyabrsk Airport (USRO)
Time Latitude Longitude Altitude Speed Heading
2026-04-24 16:57 52.41887 22.88412 38916 ft 425 kts 38°
2026-04-24 16:57 52.46146 22.95142 38921 ft 427 kts 40°
2026-04-24 16:58 52.49750 23.03022 38923 ft 436 kts 50°
2026-04-24 16:58 52.53049 23.11374 38916 ft 436 kts 51°
2026-04-24 16:59 52.56356 23.19715 38913 ft 436 kts 51°
2026-04-24 17:00 52.61355 23.32204 38919 ft 435 kts 51°
2026-04-24 17:00 52.66341 23.44683 38907 ft 435 kts 51°
2026-04-24 17:01 52.71320 23.57213 38912 ft 435 kts 51°
2026-04-24 17:02 52.76269 23.69730 38913 ft 434 kts 51°
2026-04-24 17:02 52.79432 23.77758 38914 ft 434 kts 51°
2026-04-24 17:03 52.84362 23.90325 38909 ft 433 kts 51°
2026-04-24 17:04 52.87609 23.98722 38912 ft 433 kts 52°
2026-04-24 17:04 52.92421 24.11368 38911 ft 433 kts 52°
2026-04-24 17:05 52.95642 24.19794 38907 ft 432 kts 51°
2026-04-24 17:06 53.00562 24.32314 38909 ft 432 kts 51°
2026-04-24 17:06 53.05472 24.44859 38905 ft 431 kts 51°
2026-04-24 17:07 53.08729 24.53235 38908 ft 431 kts 51°
2026-04-24 17:08 53.15327 24.70282 38916 ft 445 kts 52°
2026-04-24 17:08 53.18672 24.78980 38903 ft 447 kts 52°
2026-04-24 17:09 53.25344 24.96397 38894 ft 446 kts 52°
2026-04-24 17:10 53.31925 25.13893 38896 ft 443 kts 52°
2026-04-24 17:12 53.44890 25.48767 38849 ft 440 kts 53°
2026-04-24 18:54 57.39777 46.97852 38462 ft 477 kts 66°
2026-04-24 18:55 57.43901 47.14680 38460 ft 478 kts 67°
2026-04-24 18:56 57.46605 47.25943 38460 ft 478 kts 67°
2026-04-24 18:56 57.49304 47.37226 38458 ft 478 kts 68°
2026-04-24 18:57 57.51995 47.48552 38459 ft 479 kts 68°
2026-04-24 18:57 57.54680 47.59894 38459 ft 479 kts 68°
2026-04-24 18:58 57.57356 47.71243 38460 ft 479 kts 68°
2026-04-24 18:58 57.60030 47.82641 38458 ft 479 kts 68°
2026-04-24 18:59 57.62693 47.94048 38462 ft 480 kts 68°
2026-04-24 18:59 57.65343 48.05462 38460 ft 480 kts 68°
2026-04-24 19:00 57.67991 48.16925 38457 ft 480 kts 68°
2026-04-24 19:00 57.70621 48.28385 38460 ft 480 kts 69°
2026-04-24 19:01 57.73249 48.39884 38465 ft 480 kts 69°
2026-04-24 19:01 57.75860 48.51397 38470 ft 481 kts 69°
2026-04-24 19:02 57.78002 48.60990 38468 ft 481 kts 69°
2026-04-24 19:02 57.81000 48.74445 38470 ft 481 kts 69°
2026-04-24 19:03 57.83622 48.86007 38467 ft 482 kts 69°
2026-04-24 19:03 57.86242 48.97589 38468 ft 482 kts 69°
2026-04-24 19:04 57.88831 49.09211 38469 ft 483 kts 69°
2026-04-24 19:04 57.91407 49.20891 38462 ft 484 kts 70°
2026-04-24 19:05 57.93970 49.32585 38488 ft 483 kts 70°
2026-04-24 19:05 57.96523 49.44307 38493 ft 484 kts 70°
2026-04-24 19:06 57.99060 49.56066 38492 ft 485 kts 70°
2026-04-24 19:06 58.01586 49.67848 38500 ft 485 kts 70°
2026-04-24 19:07 58.04127 49.79641 38499 ft 485 kts 70°
2026-04-24 19:07 58.06239 49.89464 38489 ft 486 kts 70°
2026-04-24 19:08 58.09182 50.03305 38484 ft 486 kts 70°
2026-04-24 19:08 58.11687 50.15186 38493 ft 486 kts 71°
2026-04-24 19:09 58.14182 50.27076 38487 ft 486 kts 71°
2026-04-24 19:09 58.16658 50.38961 38487 ft 486 kts 71°
2026-04-24 19:10 58.19111 50.50808 38491 ft 486 kts 71°
2026-04-24 19:10 58.21570 50.62725 38490 ft 486 kts 71°
2026-04-24 19:11 58.24016 50.74643 38486 ft 485 kts 71°
2026-04-24 19:11 58.26458 50.86610 38489 ft 485 kts 71°
2026-04-24 19:12 58.28885 50.98574 38501 ft 485 kts 71°
2026-04-24 19:12 58.31305 51.10570 38488 ft 485 kts 71°
2026-04-24 19:13 58.33326 51.20632 38496 ft 486 kts 72°
2026-04-24 19:13 58.36101 51.34600 38498 ft 486 kts 72°
2026-04-24 19:14 58.38466 51.46657 38495 ft 486 kts 72°
2026-04-24 19:14 58.40830 51.58728 38493 ft 486 kts 72°
2026-04-24 19:15 58.43247 51.70790 38495 ft 487 kts 70°
2026-04-24 19:15 58.45836 51.82765 38497 ft 488 kts 70°
2026-04-24 19:16 58.49686 52.00761 38492 ft 488 kts 71°
2026-04-24 19:16 58.52218 52.12812 38495 ft 488 kts 71°
2026-04-24 19:17 58.54707 52.24891 38568 ft 487 kts 71°
2026-04-24 19:17 58.57170 52.36954 38574 ft 487 kts 71°
2026-04-24 19:18 58.59638 52.49078 38587 ft 488 kts 71°
2026-04-24 19:18 58.62098 52.61202 38580 ft 488 kts 71°
2026-04-24 19:19 58.64548 52.73361 38585 ft 489 kts 71°
2026-04-24 19:19 58.66998 52.85547 38588 ft 489 kts 71°
2026-04-24 19:20 58.69450 52.97740 38591 ft 489 kts 71°
2026-04-24 19:20 58.71896 53.09965 38587 ft 489 kts 71°
2026-04-24 19:21 58.74333 53.22203 38594 ft 489 kts 72°
2026-04-24 19:21 58.76734 53.34363 38591 ft 490 kts 72°
2026-04-24 19:22 58.79162 53.46732 38589 ft 490 kts 72°
2026-04-24 19:22 58.81544 53.58938 38602 ft 490 kts 72°
2026-04-24 19:23 58.83933 53.71243 38598 ft 490 kts 72°
2026-04-24 19:23 58.86313 53.83584 38603 ft 490 kts 72°
2026-04-24 19:24 58.88465 53.96041 38598 ft 488 kts 76°
2026-04-24 19:24 58.90438 54.08601 38599 ft 488 kts 76°
2026-04-24 19:25 58.92427 54.21133 38607 ft 488 kts 75°
2026-04-24 19:25 58.94447 54.33699 38609 ft 488 kts 75°
2026-04-24 19:26 58.96458 54.46248 38612 ft 488 kts 75°
2026-04-24 19:26 58.98458 54.58826 38608 ft 489 kts 76°
2026-04-24 19:27 59.00443 54.71428 38608 ft 489 kts 76°
2026-04-24 19:27 59.02428 54.84058 38612 ft 488 kts 76°
2026-04-24 19:28 59.04405 54.96660 38607 ft 489 kts 76°
2026-04-24 19:28 59.06374 55.09305 38612 ft 489 kts 76°
2026-04-24 19:29 59.09280 55.28292 38616 ft 489 kts 76°
2026-04-24 19:30 59.11202 55.40968 38619 ft 489 kts 76°
2026-04-24 19:30 59.13109 55.53596 38619 ft 489 kts 76°
2026-04-24 19:31 59.15027 55.66402 38620 ft 490 kts 76°
2026-04-24 19:31 59.16910 55.79075 38620 ft 490 kts 76°
2026-04-24 19:32 59.18795 55.91821 38620 ft 490 kts 77°
2026-04-24 19:32 59.20674 56.04600 38619 ft 490 kts 77°
2026-04-24 19:33 59.22542 56.17400 38627 ft 490 kts 77°
2026-04-24 19:33 59.24397 56.30211 38629 ft 490 kts 77°
2026-04-24 19:34 59.26238 56.43033 38634 ft 490 kts 77°
2026-04-24 19:34 59.27760 56.53706 38640 ft 490 kts 77°
2026-04-24 19:35 59.29579 56.66547 38636 ft 490 kts 77°
2026-04-24 19:35 59.31398 56.79495 38639 ft 490 kts 77°
2026-04-24 19:36 59.33182 56.92299 38633 ft 491 kts 77°
2026-04-24 19:36 59.34970 57.05208 38641 ft 491 kts 77°
2026-04-24 19:37 59.36685 57.18151 38637 ft 490 kts 79°
2026-04-24 19:37 59.38237 57.31178 38640 ft 490 kts 79°
2026-04-24 19:38 59.39770 57.44207 38638 ft 490 kts 79°
2026-04-24 19:38 59.41318 57.57246 38640 ft 490 kts 79°
2026-04-24 19:39 59.42859 57.70279 38639 ft 490 kts 79°
2026-04-24 19:39 59.44388 57.83335 38641 ft 490 kts 79°
2026-04-24 19:40 59.45904 57.96396 38636 ft 491 kts 80°
2026-04-24 19:40 59.47406 58.09506 38638 ft 491 kts 80°
2026-04-24 19:41 59.48895 58.22601 38650 ft 491 kts 80°
2026-04-24 19:41 59.50376 58.35715 38660 ft 491 kts 80°
2026-04-24 19:42 59.51846 58.48850 38656 ft 491 kts 80°
2026-04-24 19:42 59.53302 58.62001 38656 ft 492 kts 80°
2026-04-24 19:43 59.54747 58.75168 38654 ft 492 kts 81°
2026-04-24 19:43 59.56180 58.88351 38662 ft 492 kts 81°
2026-04-24 19:44 59.57601 59.01551 38667 ft 491 kts 81°
2026-04-24 19:44 59.58999 59.14653 38662 ft 491 kts 81°
2026-04-24 19:45 59.60408 59.27931 38672 ft 492 kts 81°
2026-04-24 19:45 59.61802 59.41155 38675 ft 491 kts 81°
2026-04-24 19:46 59.63177 59.54302 38667 ft 492 kts 81°
2026-04-24 19:46 59.64556 59.67629 38665 ft 492 kts 81°
2026-04-24 19:47 59.65903 59.80790 38672 ft 492 kts 81°
2026-04-24 19:47 59.67245 59.94051 38677 ft 492 kts 82°
2026-04-24 19:48 59.68576 60.07336 38676 ft 492 kts 82°
2026-04-24 19:48 59.70545 60.27278 38673 ft 492 kts 82°
2026-04-24 19:49 59.73125 60.53914 38686 ft 493 kts 82°
2026-04-24 19:50 59.75656 60.80634 38685 ft 493 kts 82°
2026-04-24 19:51 59.77516 61.00695 38715 ft 493 kts 83°
2026-04-24 19:52 59.79349 61.20774 38723 ft 493 kts 83°
2026-04-24 19:52 59.80556 61.34203 38722 ft 494 kts 83°
2026-04-24 19:53 59.81749 61.47660 38722 ft 495 kts 83°
2026-04-24 19:54 59.83518 61.67875 38743 ft 495 kts 83°
2026-04-24 19:54 59.84671 61.81270 38751 ft 495 kts 83°
2026-04-24 19:55 59.85636 61.92609 38750 ft 496 kts 83°
2026-04-24 19:55 59.86958 62.08334 38748 ft 496 kts 83°
2026-04-24 19:56 59.88083 62.21896 38750 ft 496 kts 83°
2026-04-24 19:56 59.89196 62.35446 38752 ft 496 kts 83°
2026-04-24 19:57 59.90294 62.49007 38759 ft 496 kts 83°
2026-04-24 19:57 59.91389 62.62579 38759 ft 496 kts 84°
2026-04-24 19:58 59.92475 62.76163 38759 ft 496 kts 84°
2026-04-24 19:58 59.93551 62.89753 38759 ft 496 kts 84°
2026-04-24 19:59 59.94606 63.03331 38756 ft 496 kts 84°
2026-04-24 19:59 59.95642 63.16936 38763 ft 496 kts 84°
2026-04-24 20:00 59.96664 63.30521 38758 ft 495 kts 84°
2026-04-24 20:00 59.97676 63.44131 38772 ft 496 kts 84°
2026-04-24 20:01 59.98670 63.57662 38766 ft 495 kts 84°
2026-04-24 20:01 59.99655 63.71271 38766 ft 495 kts 84°
2026-04-24 20:02 60.00471 63.82670 38764 ft 495 kts 84°
2026-04-24 20:02 60.01637 63.98467 38759 ft 495 kts 81°
2026-04-24 20:03 60.03199 64.11885 38776 ft 496 kts 77°
2026-04-24 20:03 60.04895 64.25240 38767 ft 496 kts 78°
2026-04-24 20:04 60.06525 64.38661 38763 ft 496 kts 78°
2026-04-24 20:04 60.08101 64.52101 38775 ft 496 kts 78°
2026-04-24 20:05 60.09668 64.65575 38782 ft 496 kts 78°
2026-04-24 20:05 60.11220 64.79025 38779 ft 496 kts 78°
2026-04-24 20:06 60.13584 64.91995 38791 ft 497 kts 65°
2026-04-24 20:06 60.16582 65.04512 38777 ft 497 kts 65°
2026-04-24 20:07 60.19077 65.14904 38775 ft 497 kts 65°
2026-04-24 20:07 60.22526 65.29620 38781 ft 497 kts 65°
2026-04-24 20:08 60.25433 65.42246 38785 ft 497 kts 66°
2026-04-24 20:08 60.28324 65.54896 38791 ft 497 kts 66°
2026-04-24 20:09 60.31206 65.67569 38798 ft 497 kts 66°
2026-04-24 20:09 60.34077 65.80254 38798 ft 497 kts 66°
2026-04-24 20:10 60.36915 65.92879 38796 ft 498 kts 66°
2026-04-24 20:10 60.39770 66.05648 38798 ft 498 kts 66°
2026-04-24 20:11 60.42608 66.18427 38794 ft 498 kts 66°
2026-04-24 20:11 60.45433 66.31220 38794 ft 498 kts 66°
2026-04-24 20:12 60.48255 66.44074 38796 ft 498 kts 66°
2026-04-24 20:12 60.51057 66.56914 38795 ft 498 kts 66°
2026-04-24 20:13 60.53844 66.69770 38797 ft 497 kts 66°
2026-04-24 20:13 60.56618 66.82641 38806 ft 497 kts 67°
2026-04-24 20:14 60.59378 66.95523 38807 ft 497 kts 67°
2026-04-24 20:14 60.62124 67.08425 38806 ft 497 kts 67°
2026-04-24 20:15 60.64863 67.21361 38807 ft 497 kts 67°
2026-04-24 20:15 60.67588 67.34319 38803 ft 497 kts 67°
2026-04-24 20:16 60.70301 67.47289 38804 ft 497 kts 67°
2026-04-24 20:16 60.72994 67.60290 38805 ft 497 kts 68°
2026-04-24 20:17 60.75655 67.73334 38804 ft 497 kts 68°
2026-04-24 20:17 60.79634 67.92970 38805 ft 498 kts 68°
2026-04-24 20:18 60.82276 68.06081 38804 ft 498 kts 68°
2026-04-24 20:18 60.84906 68.19228 38808 ft 498 kts 68°
2026-04-24 20:19 60.87520 68.32372 38804 ft 498 kts 68°
2026-04-24 20:19 60.90138 68.45534 38806 ft 498 kts 68°
2026-04-24 20:20 60.92728 68.58593 38802 ft 498 kts 68°
2026-04-24 20:20 60.95328 68.71778 38803 ft 497 kts 68°
2026-04-24 20:21 60.97918 68.84988 38806 ft 497 kts 68°
2026-04-24 20:21 61.00493 68.98197 38804 ft 497 kts 69°
2026-04-24 20:22 61.03460 69.11028 38845 ft 495 kts 56°
2026-04-24 20:22 61.07110 69.20209 38784 ft 493 kts 41°
2026-04-24 20:23 61.12228 69.29615 38804 ft 492 kts 39°
2026-04-24 20:23 61.14816 69.34296 38629 ft 496 kts 39°
2026-04-24 20:23 61.17362 69.38949 38376 ft 494 kts 40°
2026-04-24 20:24 61.19907 69.43662 38118 ft 485 kts 40°
2026-04-24 20:24 61.22386 69.48300 37852 ft 474 kts 40°
2026-04-24 20:24 61.24806 69.52851 37587 ft 465 kts 40°
2026-04-24 20:24 61.27177 69.57320 37337 ft 456 kts 40°
2026-04-24 20:25 61.29513 69.61726 37096 ft 453 kts 40°
2026-04-24 20:25 61.31874 69.66174 36864 ft 463 kts 40°
2026-04-24 20:25 61.34292 69.70742 36642 ft 477 kts 40°
2026-04-24 20:25 61.36775 69.75454 36410 ft 487 kts 40°
2026-04-24 20:26 61.39284 69.80214 36159 ft 489 kts 40°
2026-04-24 20:26 61.41807 69.84993 35906 ft 489 kts 40°
2026-04-24 20:26 61.44326 69.89762 35654 ft 491 kts 40°
2026-04-24 20:26 61.46866 69.94570 35405 ft 492 kts 40°
2026-04-24 20:27 61.49401 69.99376 35159 ft 492 kts 40°
2026-04-24 20:27 61.51939 70.04206 34910 ft 493 kts 40°
2026-04-24 20:27 61.54473 70.09039 34664 ft 492 kts 40°
2026-04-24 20:27 61.57000 70.13872 34412 ft 492 kts 40°
2026-04-24 20:28 61.59524 70.18715 34167 ft 491 kts 40°
2026-04-24 20:28 61.62040 70.23548 33918 ft 490 kts 40°
2026-04-24 20:28 61.64556 70.28394 33664 ft 489 kts 41°
2026-04-24 20:28 61.67062 70.33230 33420 ft 488 kts 40°
2026-04-24 20:29 61.68712 70.36421 33259 ft 488 kts 40°
2026-04-24 20:29 61.72055 70.42898 32925 ft 487 kts 41°
2026-04-24 20:29 61.74545 70.47737 32675 ft 486 kts 40°
2026-04-24 20:29 61.77030 70.52574 32428 ft 486 kts 41°
2026-04-24 20:30 61.79518 70.57427 32179 ft 486 kts 41°
2026-04-24 20:30 61.82002 70.62284 31922 ft 487 kts 41°
2026-04-24 20:30 61.84488 70.67158 31680 ft 487 kts 41°
2026-04-24 20:30 61.86941 70.71978 31443 ft 488 kts 41°
2026-04-24 20:31 61.89462 70.76941 31186 ft 489 kts 41°
2026-04-24 20:31 61.91918 70.81788 30939 ft 489 kts 41°
2026-04-24 20:31 61.94404 70.86701 30695 ft 489 kts 41°
2026-04-24 20:31 61.96894 70.91633 30446 ft 489 kts 41°
2026-04-24 20:32 61.99378 70.96579 30197 ft 489 kts 41°
2026-04-24 20:32 62.01847 71.01528 29952 ft 490 kts 41°
2026-04-24 20:32 62.06748 71.11508 29825 ft 485 kts 42°
2026-04-24 20:33 62.11634 71.21465 29824 ft 486 kts 41°
2026-04-24 20:33 62.16553 71.31356 29827 ft 486 kts 41°
2026-04-24 20:34 62.21478 71.41281 29825 ft 486 kts 41°
2026-04-24 20:34 62.26371 71.51273 29828 ft 486 kts 42°
2026-04-24 20:35 62.31256 71.61318 29824 ft 486 kts 42°
2026-04-24 20:35 62.36129 71.71380 29825 ft 486 kts 42°
2026-04-24 20:36 62.40825 71.81681 29808 ft 468 kts 50°
2026-04-24 20:36 62.42622 71.87346 29801 ft 450 kts 60°
2026-04-24 20:36 62.44020 71.93226 29717 ft 434 kts 62°
2026-04-24 20:37 62.45368 71.99021 29358 ft 426 kts 62°
2026-04-24 20:37 62.46694 72.04712 28882 ft 422 kts 62°
2026-04-24 20:37 62.48013 72.10340 28420 ft 418 kts 62°
2026-04-24 20:37 62.49325 72.15908 27953 ft 414 kts 62°
2026-04-24 20:38 62.50626 72.21409 27482 ft 410 kts 62°
2026-04-24 20:38 62.51923 72.26889 27006 ft 406 kts 62°
2026-04-24 20:38 62.53204 72.32305 26540 ft 403 kts 62°
2026-04-24 20:38 62.54482 72.37715 26069 ft 400 kts 62°
2026-04-24 20:39 62.55741 72.43063 25604 ft 397 kts 62°
2026-04-24 20:39 62.56992 72.48389 25144 ft 394 kts 62°
2026-04-24 20:39 62.58228 72.53668 24679 ft 391 kts 62°
2026-04-24 20:39 62.59452 72.58907 24221 ft 389 kts 62°
2026-04-24 20:40 62.60670 72.64134 23762 ft 386 kts 62°
2026-04-24 20:40 62.61878 72.69334 23306 ft 384 kts 62°
2026-04-24 20:40 62.63072 72.74480 22856 ft 381 kts 63°
2026-04-24 20:40 62.64261 72.79616 22403 ft 378 kts 63°
2026-04-24 20:41 62.65436 72.84705 21950 ft 376 kts 63°
2026-04-24 20:41 62.66602 72.89766 21505 ft 373 kts 63°
2026-04-24 20:41 62.67744 72.94737 21058 ft 371 kts 63°
2026-04-24 20:41 62.68906 72.99804 20616 ft 368 kts 63°
2026-04-24 20:42 62.70027 73.04705 20182 ft 365 kts 63°
2026-04-24 20:42 62.71166 73.09698 19731 ft 363 kts 63°
2026-04-24 20:42 62.72288 73.14626 19299 ft 360 kts 63°
2026-04-24 20:42 62.73396 73.19505 18864 ft 358 kts 63°
2026-04-24 20:43 62.74478 73.24279 18437 ft 355 kts 63°
2026-04-24 20:43 62.75570 73.29106 18001 ft 353 kts 63°
2026-04-24 20:43 62.76652 73.33902 17576 ft 351 kts 63°
2026-04-24 20:43 62.77722 73.38660 17152 ft 349 kts 63°
2026-04-24 20:44 62.78788 73.43400 16725 ft 347 kts 63°
2026-04-24 20:44 62.79847 73.48124 16296 ft 344 kts 63°
2026-04-24 20:44 62.80907 73.52862 15867 ft 342 kts 63°
2026-04-24 20:44 62.81934 73.57463 15457 ft 340 kts 64°
2026-04-24 20:45 62.82965 73.62095 15047 ft 337 kts 63°
2026-04-24 20:45 62.83987 73.66690 14637 ft 335 kts 64°
2026-04-24 20:45 62.84994 73.71237 14228 ft 333 kts 64°
2026-04-24 20:45 62.85999 73.75779 13811 ft 331 kts 64°
2026-04-24 20:46 62.86998 73.80304 13407 ft 329 kts 64°
2026-04-24 20:46 62.87992 73.84811 12997 ft 327 kts 64°
2026-04-24 20:46 62.88981 73.89306 12588 ft 326 kts 64°
2026-04-24 20:46 62.89959 73.93763 12181 ft 324 kts 64°
2026-04-24 20:47 62.90934 73.98215 11773 ft 322 kts 64°
2026-04-24 20:47 62.91899 74.02628 11467 ft 319 kts 64°
2026-04-24 20:47 62.92853 74.07000 11222 ft 317 kts 64°
2026-04-24 20:47 62.93800 74.11347 10969 ft 317 kts 64°
2026-04-24 20:48 62.94754 74.15737 10722 ft 316 kts 64°
2026-04-24 20:48 62.95687 74.20030 10462 ft 311 kts 64°
2026-04-24 20:48 62.96620 74.24332 10217 ft 312 kts 64°
2026-04-24 20:48 62.97537 74.28581 9953 ft 300 kts 64°
2026-04-24 20:49 62.98412 74.32648 9690 ft 287 kts 64°
2026-04-24 20:49 62.99272 74.36538 9428 ft 281 kts 59°
2026-04-24 20:49 63.00496 74.39826 9182 ft 277 kts 44°
2026-04-24 20:49 63.01877 74.42815 8950 ft 280 kts 43°
2026-04-24 20:50 63.03286 74.45826 8702 ft 284 kts 43°
2026-04-24 20:50 63.04698 74.48850 8451 ft 282 kts 43°
2026-04-24 20:50 63.06094 74.51857 8201 ft 280 kts 43°
2026-04-24 20:50 63.07514 74.54926 7971 ft 290 kts 44°
2026-04-24 20:51 63.08950 74.58036 7708 ft 287 kts 44°
2026-04-24 20:51 63.10356 74.61099 7448 ft 281 kts 44°
2026-04-24 20:51 63.11741 74.64127 7205 ft 280 kts 44°
2026-04-24 20:51 63.13119 74.67141 6955 ft 278 kts 44°
2026-04-24 20:52 63.14482 74.70126 6700 ft 275 kts 44°
2026-04-24 20:52 63.15836 74.73098 6449 ft 272 kts 44°
2026-04-24 20:52 63.17177 74.76038 6199 ft 271 kts 44°
2026-04-24 20:52 63.18514 74.78983 5950 ft 271 kts 44°
2026-04-24 20:53 63.19847 74.81920 5702 ft 270 kts 44°
2026-04-24 20:53 63.21173 74.84850 5452 ft 269 kts 44°
2026-04-24 20:53 63.22498 74.87782 5202 ft 269 kts 44°
2026-04-24 20:53 63.23819 74.90705 4950 ft 268 kts 44°
2026-04-24 20:54 63.25134 74.93622 4702 ft 267 kts 44°
2026-04-24 20:54 63.26450 74.96541 4453 ft 267 kts 44°
2026-04-24 20:54 63.27764 74.99458 4204 ft 267 kts 44°
2026-04-24 20:54 63.29072 75.02364 3960 ft 264 kts 44°
2026-04-24 20:55 63.30335 75.05178 3818 ft 255 kts 44°
2026-04-24 20:55 63.31588 75.07968 3600 ft 248 kts 44°
2026-04-24 20:55 63.32750 75.10561 3460 ft 226 kts 44°
2026-04-24 20:55 63.33813 75.12936 3315 ft 208 kts 44°
2026-04-24 20:56 63.34796 75.15148 3207 ft 194 kts 44°
2026-04-24 20:56 63.35700 75.17184 3099 ft 182 kts 44°
2026-04-24 20:56 63.36563 75.19127 2929 ft 175 kts 44°
2026-04-24 20:56 63.37411 75.21037 2847 ft 177 kts 44°
2026-04-24 20:57 63.38282 75.22989 2813 ft 176 kts 43°
2026-04-24 20:57 63.38909 75.25237 2792 ft 171 kts 85°
2026-04-24 20:57 63.38626 75.27682 2767 ft 164 kts 133°
2026-04-24 20:57 63.37846 75.29534 2702 ft 164 kts 141°
2026-04-24 20:58 63.37052 75.31315 2609 ft 160 kts 141°
2026-04-24 20:58 63.36264 75.33068 2531 ft 160 kts 141°
2026-04-24 20:58 63.35481 75.34808 2465 ft 158 kts 141°
2026-04-24 20:58 63.34693 75.36551 2405 ft 161 kts 141°
2026-04-24 20:59 63.33907 75.38310 2336 ft 161 kts 140°
2026-04-24 20:59 63.33091 75.39988 2254 ft 156 kts 153°
2026-04-24 20:59 63.32095 75.40550 2191 ft 146 kts 185°
2026-04-24 20:59 63.31139 75.39983 2135 ft 142 kts 210°
2026-04-24 21:00 63.30279 75.39108 2102 ft 127 kts 210°
2026-04-24 21:00 63.29515 75.38339 2029 ft 117 kts 210°
2026-04-24 21:00 63.28777 75.37601 1942 ft 119 kts 210°
2026-04-24 21:00 63.28020 75.36826 1841 ft 118 kts 210°
2026-04-24 21:01 63.27285 75.36068 1800 ft 115 kts 210°
2026-04-24 21:01 63.26555 75.35310 1783 ft 118 kts 210°
2026-04-24 21:01 63.25808 75.34542 1656 ft 119 kts 209°
2026-04-24 21:01 63.25071 75.33780 1524 ft 116 kts 209°
2026-04-24 21:02 63.24335 75.33020 1402 ft 116 kts 209°
2026-04-24 21:02 63.23601 75.32262 1260 ft 116 kts 209°
2026-04-24 21:02 63.22865 75.31503 1113 ft 117 kts 209°
2026-04-24 21:02 63.22132 75.30747 983 ft 116 kts 209°
2026-04-24 21:03 63.21395 75.29988 840 ft 116 kts 208°
2026-04-24 21:03 63.20658 75.29234 701 ft 117 kts 207°
2026-04-24 21:03 63.19929 75.28452 584 ft 117 kts 208°
2026-04-24 21:03 63.19182 75.27714 463 ft 119 kts 207°
2026-04-24 21:04 63.18486 75.27002 453 ft 74 kts 205°
2026-04-24 21:04 63.18348 75.26919 455 ft 10 kts 144°
2026-04-24 21:04 63.18313 75.27054 456 ft 4 kts 114°
2026-04-24 21:04 63.18287 75.27178 454 ft 7 kts 114°
2026-04-24 21:05 63.18234 75.27218 454 ft 11 kts 194°
2026-04-24 21:05 63.18160 75.27131 454 ft 13 kts 209°
2026-04-24 21:05 63.18082 75.27064 454 ft 11 kts 201°
2026-04-24 21:05 63.18019 75.27002 454 ft 6 kts 206°
2026-04-24 21:06 63.17998 75.27005 453 ft 3 kts 150°
2026-04-24 21:06 63.17981 75.27065 454 ft 4 kts 125°
2026-04-24 21:06 63.17962 75.27074 454 ft 3 kts 205°
2026-04-24 21:06 63.17943 75.27030 454 ft 0 kts 236°
2026-04-24 21:07 63.17941 75.27024 454 ft 0 kts 237°